Change the Weather History Date:

Tuesday, September 18, 2012

  Actual Average Record
Temperature  
Mean Temperature 78 °F -  
Max Temperature 82 °F 85 °F 93 °F (1997)
Min Temperature 73 °F 67 °F 57 °F (1999)
Cooling Degree Days 12    
Growing Degree Days 28 (Base 50)    
Moisture  
Dew Point 69 °F    
Average Humidity 78    
Maximum Humidity 91    
Minimum Humidity 54    
Precipitation  
Precipitation 0.01 in - - ()
Sea Level Pressure  
Sea Level Pressure 29.82 in    
Wind  
Wind Speed 7 mph (WNW)    
Max Wind Speed 16 mph    
Max Gust Speed 25 mph    
Visibility 10 miles    
Events Rain , Thunderstorm    
Averages and records for this station are not official NWS values.
T = Trace of Precipitation, MM = Missing Value Source: NWS Daily Summary

Daily Weather History Graph

Daily Weather History Graph

Search for Another Location

Airport or City:

Trip Planner

Search our weather history database for the weather conditions in past years. The results will help you decide how hot, cold, wet, or windy it might be!

Date:

Astronomy

Sep. 18, 2012 Rise Set
Actual Time 6:38 AM CDT 6:53 PM CDT
Civil Twilight 6:14 AM CDT 7:17 PM CDT
Nautical Twilight 5:46 AM CDT 7:45 PM CDT
Astronomical Twilight 5:17 AM CDT 8:13 PM CDT
Moon 9:21 AM CDT (9/18) 8:34 PM CDT (9/18)
Length of Visible Light 13h 02m
Length of Day
12h 14m
Waxing Crescent, 9% of the Moon is Illuminated
Sep 18
Waxing Crescent
Sep 22
First Quarter
Sep 29
Full
Oct 8
Last Quarter
Oct 15
New

Hourly Weather History & Observations

Time (CDT) Temp. Heat Index Dew Point Humidity Pressure Visibility Wind Dir Wind Speed Gust Speed Precip Events Conditions
12:01 AM 78.8 °F - 75.2 °F 89% 29.75 in 7.0 mi SSW 8.1 mph 19.6 mph 0.00 in Rain , Thunderstorm Light Thunderstorms and Rain
12:10 AM 78.8 °F - 75.2 °F 89% 29.75 in 10.0 mi SSW 8.1 mph 16.1 mph 0.00 in Rain Light Rain
12:29 AM 78.8 °F - 75.2 °F 89% 29.75 in 10.0 mi Variable 5.8 mph - 0.01 in Thunderstorm Overcast
12:38 AM 78.8 °F - 73.4 °F 83% 29.75 in 10.0 mi Variable 6.9 mph - 0.01 in   Mostly Cloudy
12:53 AM 79.0 °F - 73.9 °F 84% 29.75 in 10.0 mi SSW 5.8 mph - 0.01 in   Partly Cloudy
1:04 AM 78.8 °F - 73.4 °F 83% 29.75 in 10.0 mi SSW 6.9 mph - 0.00 in Rain , Thunderstorm Light Rain
1:23 AM 77.0 °F - 71.6 °F 83% 29.76 in 10.0 mi SSW 6.9 mph - 0.00 in   Partly Cloudy
1:53 AM 77.0 °F - 72.0 °F 84% 29.75 in 10.0 mi SW 4.6 mph - 0.00 in   Clear
2:53 AM 77.0 °F - 73.0 °F 88% 29.75 in 10.0 mi WSW 3.5 mph - N/A   Mostly Cloudy
3:18 AM 77.0 °F - 71.6 °F 83% 29.75 in 10.0 mi West 5.8 mph - N/A   Partly Cloudy
3:53 AM 75.9 °F - 71.1 °F 85% 29.75 in 10.0 mi WSW 4.6 mph - N/A   Clear
4:53 AM 73.9 °F - 71.1 °F 91% 29.75 in 10.0 mi Variable 4.6 mph - N/A   Clear
5:44 AM 73.4 °F - 69.8 °F 88% 29.76 in 10.0 mi West 3.5 mph - N/A   Partly Cloudy
5:53 AM 73.0 °F - 70.0 °F 90% 29.76 in 10.0 mi West 3.5 mph - N/A   Partly Cloudy
6:53 AM 73.0 °F - 69.1 °F 87% 29.78 in 10.0 mi West 4.6 mph - N/A   Clear
7:00 AM 73.4 °F - 69.8 °F 88% 29.79 in 10.0 mi West 6.9 mph - N/A   Scattered Clouds
7:53 AM 73.9 °F - 70.0 °F 87% 29.81 in 10.0 mi WNW 8.1 mph - N/A   Mostly Cloudy
8:53 AM 75.0 °F - 69.1 °F 82% 29.83 in 10.0 mi West 6.9 mph - N/A   Mostly Cloudy
9:53 AM 78.1 °F - 69.1 °F 74% 29.84 in 10.0 mi West 8.1 mph - N/A   Mostly Cloudy
10:53 AM 79.0 °F - 69.1 °F 72% 29.86 in 10.0 mi NW 12.7 mph - N/A   Overcast
11:53 AM 78.1 °F - 66.0 °F 66% 29.87 in 10.0 mi WNW 15.0 mph 21.9 mph N/A   Mostly Cloudy
12:53 PM 81.0 °F 84.1 °F 69.1 °F 67% 29.86 in 10.0 mi Variable 5.8 mph - N/A   Mostly Cloudy
1:53 PM 81.0 °F 83.3 °F 66.9 °F 62% 29.86 in 10.0 mi NW 11.5 mph - N/A   Mostly Cloudy
2:53 PM 82.9 °F 85.0 °F 66.0 °F 56% 29.85 in 10.0 mi NNW 16.1 mph 25.3 mph N/A   Mostly Cloudy
3:53 PM 82.0 °F 83.8 °F 64.9 °F 56% 29.87 in 10.0 mi NNW 12.7 mph 21.9 mph N/A   Scattered Clouds
4:53 PM 82.0 °F 83.4 °F 64.0 °F 54% 29.86 in 10.0 mi North 11.5 mph 17.3 mph N/A   Partly Cloudy
5:53 PM 81.0 °F 82.5 °F 64.0 °F 56% 29.87 in 10.0 mi NNW 12.7 mph - N/A   Partly Cloudy
6:53 PM 78.1 °F - 64.9 °F 64% 29.88 in 10.0 mi NNW 8.1 mph - N/A   Partly Cloudy
7:53 PM 73.9 °F - 66.9 °F 79% 29.90 in 10.0 mi WNW 5.8 mph - N/A   Clear
8:53 PM 73.9 °F - 66.9 °F 79% 29.94 in 10.0 mi NW 4.6 mph - N/A   Clear
9:53 PM 73.0 °F - 66.9 °F 81% 29.97 in 10.0 mi NW 6.9 mph - N/A   Clear
10:53 PM 73.0 °F - 66.9 °F 81% 29.99 in 10.0 mi North 10.4 mph - N/A   Clear
11:53 PM 73.0 °F - 66.9 °F 81% 30.00 in 10.0 mi North 8.1 mph - N/A   Mostly Cloudy